星链-30252 (STARLINK-30252 )

导读

STARLINK-30252是美国太空探索技术公司星链计划中的卫星,于2023年8月11日发射,属于低轨卫星星座组网卫星。星链旨在构建全球卫星互联网,为全球偏远地区、海洋等地面网络覆盖盲区提供高速互联网接入服务。该卫星入轨后,将和其他星链卫星协同工作,进一步扩展星链星座的覆盖范围与服务能力。

基本信息
目录编号:
57607
目录名称:
STARLINK-30252
国际标识:
2023-119F
轨道中心:
EARTH
卫星名称:
星链-30252
卫星全名:
星链-30252 (STARLINK-30252 )
卫星状态:
在轨 (已飞行1120 天)
发射日期:
2023-08-11 UTC
国别 :
美国 (US)
星等 :
--
轨道信息
数据来源 国际轨道数据 AOE轨道数据
星历时间 2026-09-04T09:44:50+0800
7小时前
查看轨道信息
2026-08-30T20:00:00+0800
4天前
查看轨道信息
半长轴 6861.173km 6861.157km
偏心率 0.0000647 0.0000018
轨道倾角 43.000° 42.999°
近地点辐角 259.487° 355.225°
升交点赤经 139.230° 165.054°
平近点角 100.591° 28.267°
近地点 482.592km 483.007km
远地点 483.48km 483.033km
周期 94.266分钟 94.266分钟
每日圈数 15.275845 15.275898
详细信息
固有亮度:
5
最大亮度:
0.3
卫星平台:
Starlink v2.0 mini
覆盖范围:
全球
运营商:
太空探索技术公司
运营商所在国:
美国
制造商(研发单位):
太空探索技术公司
制造商所在国:
美国
使用方式:
暂无
卫星简介
星链(Starlink)计划是由太空探索技术公司(SpaceX)提出的一个巨型低轨卫星互联网星座项目,计划在2019年至2024年间在太空搭建由约1.2万颗卫星组成的“星链”网络,其中1584颗将部署在地球上空550千米处的近地轨道,并从2020年开始工作。该卫星仍在工作。
2D轨道图
3D轨道图
轨道高度分析图
轨道倾角分析图
轨道综合分析图
查看轨道综合分析图